This demonstration page uses our WeatherBlox Daily Observations layout. Learn more.

Left ArrowRight Arrow

34.02893, -84.19858

Hourly Observations for June 6, 2020

Temp ( °F °C ) Dew Point ( °F °C ) Humidity (%) Winds ( mph kmh ) Pressure ( in mb ) Visibility ( mi km ) Precip ( " mm )
12:53 am 00:53 Clear 69 20.6 68 20 96 96 WSW 3 6 29.95 1014 10 16 0.00 0.00
1:53 am 01:53 Clear 69 20.6 68 20 96 96 Calm 29.96 1015 10 16 0.00 0.00
2:53 am 02:53 Clear 68 20 67 19.4 96 96 Calm 29.95 1014 10 16 0.00 0.00
3:53 am 03:53 Mostly Clear 68 20 67 19.4 96 96 WSW 5 7 29.95 1014 10 16 0.00 0.00
4:53 am 04:53 Clear 67 19.4 66 18.9 97 97 Calm 29.96 1014 10 16 0.00 0.00
5:53 am 05:53 Clear 67 19.4 66 18.9 97 97 Calm 29.96 1015 9 14 0.00 0.00
6:53 am 06:53 Sunny 67 19.4 67 19.4 100 100 Calm 29.97 1015 10 16 0.00 0.00
7:53 am 07:53 Sunny 69 20.6 68 20 96 96 Calm 29.99 1016 9 14 0.00 0.00
8:53 am 08:53 Sunny 74 23.3 69 20.6 85 85 N 7 11 29.99 1016 10 16 0.00 0.00
9:53 am 09:53 Sunny 77 25 70 21.1 79 79 Calm 30.00 1016 10 16 0.00 0.00
10:53 am 10:53 Sunny 78 25.6 71 21.7 79 79 Calm 30.00 1016 10 16 0.00 0.00
11:53 am 11:53 Sunny 83 28.3 70 21.1 65 65 VRB 3 6 30.01 1016 10 16 0.00 0.00
12:53 pm 12:53 Mostly Sunny 85 29.4 67 19.4 55 55 SW 6 9 30.00 1016 10 16 0.00 0.00
1:53 pm 13:53 Mostly Cloudy 84 28.9 68 20 59 59 VRB 3 6 29.98 1015 10 16 0.00 0.00
2:53 pm 14:53 Partly Cloudy 85 29.4 68 20 57 57 Calm 29.96 1015 10 16 0.00 0.00
3:53 pm 15:53 Partly Cloudy 85 29.4 68 20 57 57 SSW 3 6 29.95 1014 10 16 0.00 0.00
4:53 pm 16:53 Sunny 85 29.4 69 20.6 59 59 S 3 6 29.94 1014 10 16 0.00 0.00
5:53 pm 17:53 Sunny 84 28.9 69 20.6 61 61 S 5 7 29.93 1014 10 16 0.00 0.00
6:53 pm 18:53 Sunny 82 27.8 70 21.1 67 67 S 6 9 29.92 1013 10 16 0.00 0.00
7:53 pm 19:53 Sunny 80 26.7 70 21.1 71 71 S 5 7 29.93 1014 10 16 0.00 0.00
8:53 pm 20:53 Clear 77 25 71 21.7 82 82 Calm 29.92 1013 10 16 0.00 0.00
9:53 pm 21:53 Clear 76 24.4 71 21.7 85 85 SSE 3 6 29.92 1013 10 16 0.00 0.00
10:53 pm 22:53 Mostly Cloudy 76 24.4 72 22.2 88 88 S 3 6 29.93 1014 10 16 0.00 0.00
11:11 pm 23:11 Partly Cloudy 75 23.9 71 21.7 88 88 S 5 7 29.96 1015 10 16 0.00 0.00
11:53 pm 23:53 Clear 75 23.9 69 20.6 82 82 S 10 17 29.96 1015 10 16 0.00 0.00

Powered by AerisWeather